CW4352 Weather Reports


time (UTC)temp
C
wind
direction
speed
KPH
gust
KPH
rain 1hr
cm
rain 24hr
cm
rain mn
cm
humidity
%
barometer
mb
20260901091704 27 4 4.8 9.7 0.00 0.00 0.00 57 1012.9
20260901091204 27 5 3.2 8.0 0.00 0.00 0.00 57 1012.9
20260901090704 27 331 4.8 8.0 0.00 0.00 0.00 56 1012.9
20260901090204 27 341 4.8 12.9 0.00 0.00 0.00 54 1012.9
20260901084704 26 316 3.2 9.7 0.00 0.00 0.00 54 1012.2
20260901084203 26 333 3.2 9.7 0.00 0.00 0.00 54 1012.2
20260901081204 26 349 4.8 9.7 0.00 0.00 0.00 55 1012.2
20260901080203 26 9 1.6 9.7 0.00 0.00 0.00 55 1012.2
20260901074203 26 352 0.0 4.8 0.00 0.00 0.00 54 1012.2
20260901073704 26 345 3.2 4.8 0.00 0.00 0.00 54 1012.2
20260901073204 26 345 3.2 4.8 0.00 0.00 0.00 53 1012.2
20260901071203 26 325 1.6 4.8 0.00 0.00 0.00 51 1012.1
20260901070704 25 321 1.6 3.2 0.00 0.00 0.00 52 1012.1
20260901070203 25 321 0.0 1.6 0.00 0.00 0.00 50 1012.1
20260901064704 24 321 1.6 4.8 0.00 0.00 0.00 52 1012.1
20260901064203 23 321 0.0 1.6 0.00 0.00 0.00 54 1012.1
20260901063203 23 321 0.0 3.2 0.00 0.00 0.00 56 1012.1
20260901061703 22 321 0.0 1.6 0.00 0.00 0.00 58 1011.8
20260901053704 21 321 0.0 0.0 0.00 0.00 0.00 62 1011.8
20260901051703 21 321 1.6 4.8 0.00 0.00 0.00 62 1011.5
20260901050703 20 321 3.2 4.8 0.00 0.00 0.00 62 1011.5
20260901050203 20 321 1.6 4.8 0.00 0.00 0.00 62 1011.5
20260901041703 21 321 1.6 3.2 0.00 0.00 0.00 61 1011.5
20260901040203 21 321 0.0 3.2 0.00 0.00 0.00 59 1011.5
20260901034703 21 321 0.0 1.6 0.00 0.00 0.00 58 1011.5
20260901024703 21 291 1.6 3.2 0.00 0.00 0.00 60 1011.0
20260901023203 21 291 0.0 1.6 0.00 0.00 0.00 59 1011.0
20260901021703 21 291 0.0 1.6 0.00 0.00 0.00 59 1010.8
20260901021203 21 291 0.0 1.6 0.00 0.00 0.00 59 1010.8
20260901014704 21 291 1.6 4.8 0.00 0.00 0.00 58 1010.7
20260901013703 22 291 3.2 4.8 0.00 0.00 0.00 56 1010.1
20260901011703 23 291 3.2 4.8 0.00 0.00 0.00 51 1010.1
20260901011203 23 291 1.6 3.2 0.00 0.00 0.00 51 1010.1
20260901010703 23 291 1.6 4.8 0.00 0.00 0.00 51 1010.1
20260901010203 23 291 3.2 4.8 0.00 0.00 0.00 50 1010.1
20260901004204 23 291 3.2 4.8 0.00 0.00 0.00 50 1010.0
20260901000204 22 291 0.0 4.8 0.00 0.00 0.00 56 1010.0
20260831234203 22 291 1.6 3.2 0.00 0.00 0.00 59 1010.1
20260831233703 22 291 0.0 3.2 0.00 0.00 0.00 60 1010.1
20260831233203 22 291 0.0 3.2 0.00 0.00 0.00 60 1010.1
20260831231703 23 291 1.6 3.2 0.00 0.00 0.00 57 1010.1
20260831231203 23 291 1.6 3.2 0.00 0.00 0.00 56 1010.0
20260831224704 24 291 0.0 3.2 0.00 0.00 0.00 52 1009.5
20260831223203 25 291 1.6 4.8 0.00 0.00 0.00 50 1009.5
20260831221703 25 291 1.6 4.8 0.00 0.00 0.00 49 1009.5
20260831220204 25 291 1.6 4.8 0.00 0.00 0.00 49 1009.5
20260831214703 25 291 3.2 8.0 0.00 0.00 0.00 48 1009.5
20260831214203 25 291 3.2 8.0 0.00 0.00 0.00 49 1009.5
20260831213204 25 291 1.6 8.0 0.00 0.00 0.00 49 1009.5
20260831210704 26 291 1.6 4.8 0.00 0.00 0.00 48 1008.8
20260831204203 26 291 8.0 11.3 0.00 0.00 0.00 49 1008.8
20260831203704 26 300 8.0 9.7 0.00 0.00 0.00 48 1008.8
20260831203203 26 300 8.0 12.9 0.00 0.00 0.00 48 1008.8
20260831201704 26 305 4.8 8.0 0.00 0.00 0.00 47 1008.5
20260831201203 26 305 4.8 11.3 0.00 0.00 0.00 47 1008.5
20260831200703 26 305 4.8 9.7 0.00 0.00 0.00 47 1008.5
20260831194203 27 305 4.8 8.0 0.00 0.00 0.00 46 1008.5
20260831193704 27 305 3.2 4.8 0.00 0.00 0.00 46 1008.5
20260831193203 27 305 3.2 8.0 0.00 0.00 0.00 45 1008.5
20260831190704 28 305 4.8 11.3 0.00 0.00 0.00 43 1008.5
20260831184703 28 345 3.2 8.0 0.00 0.00 0.00 41 1007.9
20260831184203 28 346 3.2 4.8 0.00 0.00 0.00 40 1007.9
20260831180205 30 348 0.0 4.8 0.00 0.00 0.00 37 1007.9
20260831174205 31 348 1.6 4.8 0.00 0.00 0.00 34 1007.9
20260831173205 32 347 1.6 4.8 0.00 0.00 0.00 34 1007.9
20260831171205 32 338 1.6 4.8 0.00 0.00 0.00 33 1007.9
20260831170705 32 336 3.2 8.0 0.00 0.00 0.00 32 1007.9
20260831164705 32 334 3.2 8.0 0.00 0.00 0.00 33 1007.9
20260831164205 32 355 3.2 4.8 0.00 0.00 0.00 32 1007.9
20260831163705 32 356 3.2 4.8 0.00 0.00 0.00 33 1007.9
20260831163205 32 5 3.2 4.8 0.00 0.00 0.00 32 1007.9
20260831154704 33 0 0.0 4.8 0.00 0.00 0.00 28 1008.2
20260831154205 33 0 1.6 4.8 0.00 0.00 0.00 29 1008.2
20260831153204 33 324 1.6 9.7 0.00 0.00 0.00 31 1008.2
20260831151705 33 18 3.2 8.0 0.00 0.00 0.00 30 1008.2
20260831151205 33 36 3.2 4.8 0.00 0.00 0.00 30 1008.3
20260831150705 33 40 4.8 9.7 0.00 0.00 0.00 30 1008.3
20260831144705 33 11 1.6 9.7 0.00 0.00 0.00 29 1008.3
20260831134705 33 49 3.2 8.0 0.00 0.00 0.00 30 1008.5
20260831134204 33 50 3.2 8.0 0.00 0.00 0.00 30 1008.5
20260831131705 33 16 1.6 4.8 0.00 0.00 0.00 32 1008.5
20260831131204 33 5 3.2 8.0 0.00 0.00 0.00 31 1009.0
20260831130705 33 14 4.8 9.7 0.00 0.00 0.00 31 1009.0
20260831124705 32 9 4.8 11.3 0.00 0.00 0.00 33 1009.0
20260831124205 32 9 3.2 11.3 0.00 0.00 0.00 33 1009.0
20260831123705 32 4 3.2 4.8 0.00 0.00 0.00 33 1009.5
20260831121204 32 19 3.2 9.7 0.00 0.00 0.00 35 1009.5
20260831113205 31 51 3.2 8.0 0.00 0.00 0.00 35 1009.8
20260831110705 31 16 3.2 8.0 0.00 0.00 0.00 37 1009.8
20260831110205 31 37 4.8 16.1 0.00 0.00 0.00 38 1010.0
20260831103204 31 326 4.8 11.3 0.00 0.00 0.00 38 1010.0
20260831101205 31 50 3.2 8.0 0.00 0.00 0.00 37 1010.0
20260831094204 31 44 1.6 4.8 0.00 0.00 0.00 38 1010.0
20260831093204 30 44 3.2 4.8 0.00 0.00 0.00 38 1010.2